FW2527 Weather Reports


time (UTC)temp
C
wind
direction
speed
KPH
gust
KPH
rain 1hr
cm
rain 24hr
cm
rain mn
cm
humidity
%
barometer
mb
20260831162546 -17 0.0 0.0 0.13 0.23 0.23 1009.9
20260831162035 -17 0.0 0.0 0.13 0.23 0.23 1009.8
20260831161555 18 0.0 0.0 0.03 0.13 0.13 75 1009.8
20260831161048 18 0.0 0.0 0.00 0.10 0.10 74 1009.8
20260831160537 18 0.0 0.0 0.00 0.10 0.10 74 1009.7
20260831160055 18 0.0 0.0 0.00 0.10 0.10 72 1009.6
20260831155545 18 0.0 0.0 0.00 0.10 0.10 70 1009.7
20260831155035 18 0.0 0.0 0.00 0.10 0.10 71 1009.5
20260831154603 18 0.0 0.0 0.00 0.10 0.10 71 1009.6
20260831154045 19 0.0 0.0 0.00 0.10 0.10 72 1009.6
20260831153535 20 0.0 0.0 0.00 0.10 0.10 71 1009.4
20260831153101 20 0.0 0.0 0.00 0.10 0.10 73 1009.4
20260831152546 20 0.0 0.0 0.00 0.10 0.10 75 1009.3
20260831152036 19 0.0 0.0 0.00 0.10 0.10 77 1009.2
20260831151505 18 0.0 0.0 0.00 0.10 0.10 79 1009.2
20260831151057 18 0.0 0.0 0.00 0.10 0.10 79 1009.2
20260831150543 18 0.0 0.0 0.00 0.10 0.10 80 1009.1
20260831150007 18 0.0 0.0 0.00 0.10 0.10 82 1009.0
20260831145600 18 0.0 0.0 0.00 0.10 0.10 82 1009.0
20260831145045 18 0.0 0.0 0.00 0.10 0.10 84 1008.9
20260831144512 17 0.0 0.0 0.00 0.10 0.10 84 1008.8
20260831144055 17 0.0 0.0 0.00 0.10 0.10 84 1008.8
20260831143544 17 0.0 0.0 0.00 0.10 0.10 84 1008.7
20260831143102 17 0.0 0.0 0.00 0.10 0.10 83 1008.6
20260831142545 17 0.0 0.0 0.00 0.10 0.10 82 1008.6
20260831142037 17 0.0 0.0 0.00 0.10 0.10 82 1008.5
20260831141610 17 0.0 0.0 0.00 0.10 0.10 82 1008.5
20260831141048 17 0.0 0.0 0.00 0.10 0.10 82 1008.4
20260831140535 17 0.0 0.0 0.03 0.10 0.10 81 1008.3
20260831140056 17 0.0 0.0 0.05 0.10 0.10 80 1008.3
20260831135546 17 0.0 0.0 0.05 0.10 0.10 80 1008.4
20260831135039 17 0.0 0.0 0.08 0.10 0.10 81 1008.3
20260831134558 17 0.0 0.0 0.10 0.10 0.10 80 1008.4
20260831134046 17 0.0 0.0 0.10 0.10 0.10 81 1008.2
20260831133537 17 0.0 0.0 0.10 0.10 0.10 81 1008.2
20260831133058 17 0.0 0.0 0.10 0.10 0.10 84 1008.2
20260831132548 16 0.0 0.0 0.10 0.10 0.10 83 1008.1
20260831132043 16 0.0 0.0 0.10 0.10 0.10 84 1008.0
20260831131602 15 0.0 0.0 0.10 0.10 0.10 82 1008.3
20260831131049 16 0.0 0.0 0.10 0.10 0.10 80 1008.4
20260831130539 16 0.0 0.0 0.08 0.08 0.08 79 1008.4
20260831130059 17 0.0 0.0 0.05 0.05 0.05 77 1008.4
20260831125549 18 0.0 0.0 0.05 0.05 0.05 76 1008.3
20260831125038 19 0.0 0.0 0.03 0.03 0.03 73 1008.0
20260831124600 20 0.0 0.0 0.00 0.00 0.00 70 1007.7
20260831124046 20 0.0 0.0 0.00 0.00 0.00 68 1007.7
20260831123537 20 0.0 0.0 0.00 0.00 0.00 66 1007.6
20260831123058 20 0.0 0.0 0.00 0.00 0.00 64 1007.5
20260831122551 20 0.0 0.0 0.00 0.00 0.00 63 1007.4
20260831122037 21 0.0 0.0 0.00 0.00 0.00 62 1007.3
20260831121559 21 0.0 0.0 0.00 0.00 0.00 60 1007.4
20260831121049 21 0.0 0.0 0.00 0.00 0.00 61 1007.4
20260831120540 22 0.0 0.0 0.00 0.00 0.00 61 1007.5
20260831120059 21 0.0 0.0 0.00 0.00 0.00 59 1007.3
20260831115548 22 0.0 0.0 0.00 0.00 0.00 60 1007.3
20260831115038 22 0.0 0.0 0.00 0.00 0.00 58 1007.3
20260831114559 22 0.0 0.0 0.00 0.00 0.00 58 1007.2
20260831114049 21 0.0 0.0 0.00 0.00 0.00 59 1007.3
20260831113540 22 0.0 0.0 0.00 0.00 0.00 59 1007.2
20260831113101 21 0.0 0.0 0.00 0.00 0.00 61 1007.1
20260831112552 21 0.0 0.0 0.00 0.00 0.00 62 1007.1
20260831112041 20 0.0 0.0 0.00 0.00 0.00 63 1007.1
20260831111609 21 0.0 0.0 0.00 0.00 0.00 64 1006.9
20260831111051 21 0.0 0.0 0.00 0.00 0.00 67 1006.9
20260831110543 21 0.0 0.0 0.00 0.00 0.00 68 1007.0
20260831105552 20 0.0 0.0 0.00 0.00 0.00 67 1006.9
20260831105043 20 0.0 0.0 0.00 0.00 0.00 66 1006.9
20260831104503 20 0.0 0.0 0.00 0.00 0.00 69 1006.8
20260831104053 20 0.0 0.0 0.00 0.00 0.00 70 1006.9
20260831103543 20 0.0 0.0 0.00 0.00 0.00 70 1007.0
20260831103002 20 0.0 0.0 0.00 0.00 0.00 72 1007.0
20260831102555 20 0.0 0.0 0.00 0.00 0.00 72 1007.0
20260831102044 20 0.0 0.0 0.00 0.00 0.00 72 1006.9
20260831101503 20 0.0 0.0 0.00 0.00 0.00 70 1007.0
20260831101054 20 0.0 0.0 0.00 0.00 0.00 69 1006.9
20260831100544 20 0.0 0.0 0.00 0.00 0.00 69 1006.9
20260831100004 20 0.0 0.0 0.00 0.00 0.00 71 1006.8
20260831095555 19 0.0 0.0 0.00 0.00 0.00 73 1006.9